EUTELSAT 33C            
1 26719U 01011A   19261.38768130  .00000075  00000-0  00000+0 0  9994
2 26719   1.3305  90.3659 0005008  82.9868 190.3912  1.00270444 67870
BSAT-2A                 
1 26720U 01011B   19261.03539723  .00000004  00000-0  00000+0 0  9994
2 26720   5.5696  64.6161 0004100 154.2662  50.9130  0.99175103 67528
ARIANE 5 R/B            
1 26721U 01011C   19260.67164188 -.00000224  00000-0 -37065-2 0  9993
2 26721   1.7796  65.3851 7050269 282.5927  27.7144  2.24562203152034
ARIANE 5 DEB [SYLDA]    
1 26722U 01011D   19260.73584751 -.00000158  00000-0 -10624-2 0  9991
2 26722   2.0765  82.8514 7066273 245.5439  33.4400  2.22869200150935